[[{"header":{"parameterUnit":"m.s-1","parameterCategory":1,"la1":30.2991,"la2":30.254,"lo1":-89.0895,"lo2":-89.0444,"dy":0.0017,"dx":0.0017,"nx":28,"ny":28,"refTime":"2025-04-25T03:00:00:Z","depth":0,"parameterNumber":2,"parameterNumberName":"U-component_of_WINDS"},"data":[0,0,0,0,0,0,0,0,0,0,0,0,0,0,0,0,0,0,0,0,0,0,0,0,0,0,0,0,0,0,0,0,0,0,0,0,0,0,0,0,0,0,0,0,0,0,0,0,0,0,0,0,0,0,0,0,0,0,-3.8841,-3.8842,0,-3.8908,-3.8909,-3.891,-3.8884,-3.8883,-3.8881,-3.888,-3.8947,-3.895,-3.8954,0,0,0,0,0,0,0,0,0,0,0,0,0,-3.8691,-3.8694,-3.8841,-3.8842,-3.8843,-3.8908,-3.8909,-3.891,-3.8885,-3.8883,-3.8881,-3.8879,-3.8946,-3.895,-3.8954,0,0,0,0,0,0,0,0,0,0,0,0,0,-3.8757,-3.8695,-3.8841,-3.8838,-3.8839,-3.8908,-3.8909,-3.891,-3.8885,-3.8883,-3.8881,-3.8878,-3.8945,-3.895,-3.8954,-3.903,0,0,-3.8969,-3.8971,0,0,0,0,0,0,0,0,-3.8753,-3.8762,-3.8838,-3.8839,-3.8839,-3.8886,-3.8881,-3.8951,-3.8886,-3.8867,-3.888,-3.8877,-3.8929,-3.8935,-3.8952,-3.9034,-3.9036,-3.897,-3.8973,-3.8975,-3.8976,0,0,0,0,0,0,0,-3.8749,-3.8759,-3.8868,-3.8839,-3.884,-3.8833,-3.884,-3.8894,-3.891,-3.8869,-3.8867,-3.8876,-3.8929,-3.8948,-3.8954,-3.9037,-3.897,-3.8974,-3.8977,-3.8979,-3.9184,-3.9187,0,0,0,0,0,0,-3.8744,-3.8756,-3.8866,-3.887,-3.879,-3.8838,-3.8846,-3.8873,-3.8909,-3.8913,-3.8877,-3.8874,-3.8941,-3.8948,-3.8956,-3.9046,-3.8975,-3.8979,-3.8982,-3.9182,-3.9185,-3.9188,0,0,0,0,0,0,-3.8741,-3.8754,-3.8863,-3.8812,-3.8826,-3.8843,-3.8874,-3.8876,-3.8895,-3.8916,-3.8919,-3.8894,-3.8939,-3.8949,-3.9012,-3.9048,-3.8981,-3.8986,-3.9179,-3.9183,-3.9186,-3.9229,0,0,0,0,0,0,-3.8737,-3.8753,-3.8782,-3.8813,-3.8829,-3.8918,-3.8876,-3.8879,-3.8903,-3.8899,-3.8932,-3.8935,-3.8938,-3.9005,-3.9017,-3.9054,-3.899,-3.9176,-3.9181,-3.9185,-3.9224,-3.9233,-3.9242,0,0,0,0,0,-3.8731,-3.8791,-3.8784,-3.8797,-3.8865,-3.892,-3.8929,-3.8931,-3.8906,-3.8935,-3.8949,-3.8934,-3.9043,-3.9012,-3.9025,-3.9064,-3.9173,-3.9179,-3.9185,-3.922,-3.9232,-3.9241,0,0,0,0,0,0,-3.8763,-3.8795,-3.8787,-3.8859,-3.8887,-3.8916,-3.8953,-3.8943,-3.8979,-3.8974,-3.8975,-3.8983,-3.9047,-3.9062,-3.9027,-3.9139,-3.9104,-3.9113,-3.9127,-3.9138,-3.9146,-3.9141,-3.8994,0,0,0,0,0,-3.8778,-3.8821,-3.8846,-3.8907,-3.8922,-3.8935,-3.8959,-3.8959,-3.8988,-3.8999,-3.9018,-3.9046,-3.9087,-3.9114,-3.9152,-3.9227,-3.9233,-3.9261,-3.9269,-3.9276,-3.9283,-3.9323,-3.9335,-3.9207,-3.9207,-3.9207,0,0,-3.881,-3.8833,-3.8859,-3.8914,-3.8936,-3.8979,-3.8945,-3.8993,-3.9025,-3.9006,-3.9067,-3.9082,-3.9114,-3.9183,-3.9214,-3.9197,-3.9321,-3.9284,-3.9289,-3.9292,-3.933,-3.9343,-3.9353,-3.9211,-3.921,-3.9209,0,0,-3.889,-3.8912,-3.8965,-3.8988,-3.9022,-3.903,-3.9043,-3.9074,-3.9083,-3.9144,-3.9131,-3.917,-3.924,-3.9263,-3.9284,-3.9375,-3.9362,-3.9388,-3.9433,-3.9472,-3.9482,-3.9491,-3.9522,-3.9533,-3.9395,-3.9395,-3.9395,0,-3.8925,-3.899,-3.8993,-3.9042,-3.9066,-3.9053,-3.9106,-3.9128,-3.9173,-3.9189,-3.917,-3.9258,-3.9279,-3.9353,-3.9376,-3.9394,-3.9408,-3.9383,-3.948,-3.9489,-3.9498,-3.9527,-3.9539,-3.9398,-3.9398,-3.9397,-3.9397,0,-3.9031,-3.9077,-3.9115,-3.9159,-3.9188,-3.9239,-3.9249,-3.9278,-3.9276,-3.9286,-3.9349,-3.9374,-3.9417,-3.9435,-3.9433,-3.9509,-3.9498,-3.948,-3.9444,-3.9513,-3.9541,-3.9552,-3.9402,-3.9401,-3.94,-3.94,0,0,-3.913,-3.9176,-3.919,-3.921,-3.9247,-3.9282,-3.9333,-3.9376,-3.94,-3.9432,-3.9474,-3.9535,-3.9518,-3.9542,-3.9543,-3.9578,-3.9647,-3.9556,-3.9556,-3.957,-3.9732,-3.9743,-3.9756,-3.964,-3.9642,-3.9644,-3.9728,0,-3.9212,-3.93,-3.9305,-3.9385,-3.9427,-3.9416,-3.946,-3.9487,-3.9499,-3.9536,-3.955,-3.9592,-3.9568,-3.9583,-3.9617,-3.9631,-3.9679,-3.9626,-3.9678,-3.968,-3.9668,-3.9771,-3.9784,-3.9862,-3.9739,-3.9741,-3.9743,0,-3.9318,-3.9354,-3.9438,-3.947,-3.9487,-3.9527,-3.9566,-3.9603,-3.9634,-3.964,-3.9668,-3.9664,-3.9716,-3.9681,-3.9751,-3.9715,-3.9737,-3.9748,-3.9751,-3.9754,-3.9714,-3.9775,-3.9887,-3.9898,-3.976,-3.9759,-3.9758,0,-3.938,-3.945,-3.9509,-3.9526,-3.9565,-3.9593,-3.961,-3.9639,-3.9665,-3.97,-3.9717,-3.9758,-3.978,-3.9812,-3.9819,-3.9793,-3.989,-3.9855,-3.9895,-3.9895,-3.9914,-3.9912,-4.0029,-3.9932,-3.9932,-3.9932,-3.9931,0,-3.947,-3.9521,-3.9537,-3.9573,-3.9631,-3.9637,-3.9693,-3.9709,-3.9735,-3.9774,-3.9768,-3.9805,-3.9813,-3.9852,-3.9858,-3.9915,-3.9926,-3.9932,-3.9933,-3.9931,-3.993,-3.9944,-3.9938,-3.9935,-3.9934,-3.9933,-3.9933,0,-3.9548,-3.9561,-3.9624,-3.9656,-3.9666,-3.9707,-3.9734,-3.9769,-3.9781,-3.983,-3.9842,-3.986,-3.9906,-3.9917,-3.9971,-3.9975,-4.0042,-4.0039,-4.0031,-4.003,-4.0069,-4.0065,-4.0197,-4.0214,-4.0108,-4.0109,-4.011,0,-3.9603,-3.9642,-3.9679,-3.9705,-3.9723,-3.9765,-3.9792,-3.9799,-3.9827,-3.9866,-3.9896,-3.9941,-3.9976,-4.0049,-4.0067,-4.0108,-4.0105,-4.0148,-4.011,-4.0108,-4.0103,-4.01,-4.0104,-4.0154,-4.0156,-4.0157,-4.0157,0,-3.9699,-3.9704,-3.9742,-3.9783,-3.9815,-3.9847,-3.9878,-3.99,-3.9912,-3.9943,-3.9989,-4.0017,-4.0073,-4.0117,-4.0158,-4.0176,-4.0169,-4.017,-4.0181,-4.0179,-4.0172,-4.0175,-4.0049,-4.0166,-4.0165,-4.0164,-4.0164,-4.0164,-3.9766,-3.9801,-3.9832,-3.9875,-3.9899,-3.9929,-3.9963,-3.9979,-4.0018,-4.0063,-4.0066,-4.0116,-4.0147,-4.0203,-4.0223,-4.0262,-4.0249,-4.0265,-4.0269,-4.0273,-4.0275,-4.0168,-4.027,-4.027,-4.027,-4.027,-4.0269,0,-3.9861,-3.9881,-3.992,-3.9964,-3.9998,-3.9989,-4.0023,-4.0052,-4.0096,-4.0126,-4.0162,-4.0215,-4.0258,-4.028,-4.0323,-4.035,-4.0347,-4.0361,-4.0358,-4.0362,-4.0286,-4.0271,-4.0362,-4.0362,-4.0362,-4.0362,-4.0362,-4.0362,-3.9914,-3.9971,-3.998,-4.005,-4.0069,-4.0118,-4.0138,-4.0165,-4.0189,-4.0249,-4.0285,-4.0299,-4.0326,-4.0371,-4.041,-4.0415,-4.043,-4.0445,-4.0449,-4.0377,-4.0367,-4.0358,-4.0344,-4.0449,-4.0449,-4.0521,-4.0522,-4.0522]},{"header":{"parameterUnit":"m.s-1","parameterCategory":1,"la1":30.2991,"la2":30.254,"lo1":-89.0895,"lo2":-89.0444,"dy":0.0017,"dx":0.0017,"nx":28,"ny":28,"refTime":"2025-04-25T03:00:00:Z","depth":0,"parameterNumber":3,"parameterNumberName":"V-component_of_WINDS"},"data":[0,0,0,0,0,0,0,0,0,0,0,0,0,0,0,0,0,0,0,0,0,0,0,0,0,0,0,0,0,0,0,0,0,0,0,0,0,0,0,0,0,0,0,0,0,0,0,0,0,0,0,0,0,0,0,0,0,0,4.045,4.045,0,4.0463,4.0463,4.0463,4.0415,4.0414,4.0412,4.0411,4.0422,4.0424,4.0425,0,0,0,0,0,0,0,0,0,0,0,0,0,4.0382,4.0384,4.045,4.045,4.045,4.0463,4.0463,4.0463,4.0415,4.0413,4.0412,4.041,4.0421,4.0423,4.0425,0,0,0,0,0,0,0,0,0,0,0,0,0,4.0405,4.0384,4.045,4.0428,4.0426,4.0463,4.0463,4.0463,4.0416,4.0413,4.0411,4.0409,4.0421,4.0423,4.0426,4.0483,0,0,4.0433,4.0434,0,0,0,0,0,0,0,0,4.0404,4.0407,4.0431,4.0429,4.0427,4.0435,4.0443,4.047,4.0416,4.0419,4.0411,4.0408,4.0428,4.043,4.0437,4.0484,4.0484,4.0433,4.0435,4.0436,4.0436,0,0,0,0,0,0,0,4.0402,4.0406,4.0455,4.0431,4.0429,4.0417,4.0418,4.0448,4.0435,4.0419,4.0416,4.0418,4.0426,4.0434,4.0437,4.0484,4.0433,4.0435,4.0437,4.0438,4.058,4.0582,0,0,0,0,0,0,4.0404,4.0405,4.0454,4.0455,4.041,4.042,4.0421,4.0435,4.0435,4.0433,4.042,4.0416,4.0431,4.0434,4.0437,4.0504,4.0436,4.0438,4.0439,4.0577,4.058,4.0583,0,0,0,0,0,0,4.0402,4.0408,4.0454,4.0429,4.0434,4.0423,4.0439,4.0436,4.0444,4.0435,4.0433,4.043,4.043,4.0433,4.0472,4.0504,4.0439,4.0441,4.0575,4.0578,4.0581,4.064,0,0,0,0,0,0,4.0401,4.0408,4.043,4.043,4.0436,4.049,4.0441,4.0438,4.0448,4.0443,4.0445,4.0443,4.0428,4.0469,4.0475,4.0506,4.0443,4.0572,4.0576,4.058,4.0635,4.0645,4.0653,0,0,0,0,0,4.0398,4.0446,4.0432,4.0438,4.0463,4.0491,4.0494,4.0478,4.0451,4.0473,4.0468,4.0443,4.05,4.0473,4.0479,4.0512,4.057,4.0575,4.058,4.0631,4.0643,4.0653,0,0,0,0,0,0,4.0449,4.0445,4.043,4.0478,4.0486,4.0483,4.051,4.0491,4.0505,4.0499,4.0477,4.0478,4.0521,4.052,4.0491,4.0568,4.053,4.0537,4.0567,4.0578,4.0587,4.0586,4.0445,0,0,0,0,0,4.0466,4.049,4.0485,4.0528,4.0533,4.0521,4.0533,4.052,4.0526,4.0528,4.0526,4.0532,4.0552,4.0565,4.0582,4.0635,4.0634,4.0661,4.067,4.0677,4.0683,4.0711,4.0722,4.06,4.06,4.06,0,0,4.05,4.0502,4.0518,4.0539,4.0543,4.0567,4.0524,4.0552,4.057,4.0532,4.0569,4.0568,4.0574,4.062,4.064,4.0621,4.0717,4.0684,4.069,4.0692,4.0718,4.0729,4.074,4.0603,4.0603,4.0602,0,0,4.0576,4.058,4.0617,4.0622,4.0629,4.0621,4.063,4.0631,4.0629,4.0666,4.0638,4.0659,4.0693,4.0699,4.0706,4.0786,4.0763,4.0792,4.0839,4.0867,4.0876,4.0885,4.0913,4.0923,4.0798,4.0798,4.0798,0,4.0618,4.0655,4.0638,4.0668,4.0678,4.0646,4.0683,4.0689,4.0701,4.0709,4.0687,4.073,4.0731,4.0778,4.0798,4.0805,4.0814,4.0791,4.0877,4.0885,4.0893,4.0919,4.093,4.0801,4.0801,4.0801,4.08,0,4.0707,4.0733,4.0762,4.0775,4.0789,4.0822,4.0809,4.0825,4.081,4.0805,4.0843,4.0844,4.0861,4.0872,4.0857,4.0917,4.0905,4.0881,4.0842,4.0908,4.0933,4.0943,4.0806,4.0805,4.0804,4.0803,0,0,4.0813,4.0818,4.0829,4.0835,4.0841,4.0861,4.0893,4.0911,4.0924,4.0934,4.096,4.099,4.0968,4.0976,4.0963,4.0987,4.105,4.096,4.0959,4.0976,4.1115,4.1133,4.1145,4.1036,4.1037,4.1039,4.1115,0,4.0888,4.0944,4.0929,4.0984,4.1008,4.0979,4.1007,4.1014,4.101,4.1029,4.1024,4.1045,4.1015,4.102,4.1042,4.1038,4.1078,4.1032,4.1059,4.106,4.1058,4.1158,4.1177,4.1248,4.1124,4.1126,4.1127,0,4.0982,4.0997,4.1055,4.1058,4.1067,4.1093,4.1108,4.1127,4.1134,4.1129,4.1139,4.1121,4.1152,4.1114,4.1157,4.1126,4.1136,4.1136,4.1138,4.1139,4.1097,4.1162,4.1271,4.1282,4.1142,4.1141,4.114,0,4.1054,4.1088,4.1127,4.1134,4.1138,4.1157,4.1159,4.1164,4.1176,4.1189,4.1197,4.1214,4.1223,4.1236,4.1222,4.1196,4.1267,4.1228,4.1263,4.1264,4.1279,4.1278,4.1391,4.1287,4.1287,4.1286,4.1286,0,4.1139,4.1175,4.116,4.1184,4.1224,4.1207,4.1247,4.1246,4.1251,4.1274,4.125,4.1272,4.1253,4.1273,4.1263,4.13,4.1304,4.1301,4.1297,4.1303,4.1303,4.1308,4.1303,4.1289,4.1289,4.1288,4.1288,0,4.1225,4.1217,4.1257,4.1259,4.126,4.129,4.129,4.1312,4.1307,4.1336,4.1342,4.1333,4.1356,4.1344,4.1368,4.1361,4.1408,4.1398,4.1406,4.1403,4.1439,4.1436,4.1559,4.1574,4.1461,4.1462,4.1463,0,4.128,4.1307,4.1312,4.1326,4.1331,4.1354,4.1366,4.1351,4.1364,4.1375,4.1396,4.1416,4.1432,4.147,4.1465,4.1483,4.1473,4.1515,4.1475,4.148,4.1473,4.1471,4.1474,4.1522,4.1524,4.1525,4.1526,0,4.1377,4.1371,4.139,4.1409,4.1424,4.1438,4.1449,4.1461,4.1446,4.1463,4.1486,4.1499,4.1523,4.1544,4.1559,4.1561,4.1541,4.1538,4.1547,4.1553,4.1556,4.1554,4.1427,4.1535,4.1534,4.1534,4.1533,4.1533,4.1448,4.1472,4.1479,4.1501,4.1508,4.152,4.1541,4.1538,4.1558,4.1577,4.1567,4.1594,4.16,4.1619,4.1624,4.1645,4.1628,4.1641,4.1644,4.1648,4.1653,4.1553,4.1647,4.1647,4.1647,4.1647,4.1646,0,4.1544,4.1548,4.1569,4.1585,4.1603,4.1584,4.1595,4.1611,4.1635,4.1644,4.166,4.1687,4.1707,4.1705,4.1723,4.174,4.1731,4.1746,4.1744,4.1745,4.1667,4.1657,4.1752,4.1752,4.1752,4.1752,4.1752,4.1752,4.1596,4.1634,4.163,4.1672,4.1675,4.1702,4.171,4.172,4.1727,4.1759,4.1776,4.1774,4.1778,4.1797,4.1814,4.1813,4.1821,4.1838,4.1833,4.176,4.175,4.174,4.1731,4.184,4.184,4.1909,4.191,4.1911]}]]